Location: Nakusp
(50.2330°N, 117.8000°W)
Time: 19:53:12
(UTC-07:00)

Cosmos 1939 Rocket - Visible Passes

Search period start: 04 May 2016 00:00
Search period end: 14 May 2016 00:00
Orbit: 535 x 587 km, 97.6° (Epoch: 04 May)

Date Brightness Start Highest point End Pass type
(mag) Time Alt. Az. Time Alt. Az. Time Alt. Az.
04 May 3.1 21:15:48 10° S 21:19:51 73° WSW 21:24:01 10° NNW visible
05 May 3.1 21:14:56 10° S 21:19:00 74° WSW 21:23:10 10° NNW visible
06 May 3.1 21:14:04 10° S 21:18:09 76° WSW 21:22:19 10° NNW visible
07 May 3.1 21:13:11 10° S 21:17:17 77° WSW 21:21:28 10° NNW visible
08 May 3.1 21:12:19 10° S 21:16:25 79° WSW 21:20:36 10° NNW visible
09 May 3.1 21:11:27 10° S 21:15:34 80° WSW 21:19:45 10° NNW visible
10 May 3.0 21:10:35 10° SSE 21:14:42 82° WSW 21:18:54 10° NNW visible
11 May 3.0 21:09:43 10° SSE 21:13:50 83° WSW 21:18:03 10° NNW visible
12 May 3.0 21:08:51 10° SSE 21:12:58 85° WSW 21:17:11 10° NNW visible
13 May 3.0 21:07:58 10° SSE 21:12:07 86° WSW 21:16:19 10° NNW visible
13 May 5.9 22:47:11 10° W 22:47:44 10° W 22:48:18 10° WNW visible
